Weather History for China Lake, CA

Change the Weather History Date:

Thursday, August 8, 2013

  Actual Average Record
Temperature  
Mean Temperature 82 °F -  
Max Temperature 100 °F 100 °F 109 °F (1980)
Min Temperature 66 °F 71 °F 59 °F (2002)
Cooling Degree Days 18    
Growing Degree Days 32 (Base 50)    
Moisture  
Dew Point 32 °F    
Average Humidity 17    
Maximum Humidity 29    
Minimum Humidity 6    
Precipitation  
Precipitation 0.00 in - - ()
Sea Level Pressure  
Sea Level Pressure 29.82 in    
Wind  
Wind Speed 10 mph (SSW)    
Max Wind Speed 18 mph    
Max Gust Speed 29 mph    
Visibility 10 miles    
Events      
Averages and records for this station are not official NWS values.
T = Trace of Precipitation, MM = Missing Value Source: NWS Daily Summary

Daily Weather History Graph

Daily Weather History Graph

Search for Another Location

Airport:

Trip Planner

Search our weather history database for the weather conditions in past years. The results will help you decide how hot, cold, wet, or windy it might be!

Date:

Astronomy

Aug. 08, 2013 Rise Set
Actual Time 6:04 AM PDT 7:47 PM PDT
Civil Twilight 5:36 AM PDT 8:15 PM PDT
Nautical Twilight 5:03 AM PDT 8:48 PM PDT
Astronomical Twilight 4:28 AM PDT 9:23 PM PDT
Moon 7:50 AM PDT (8/8) 8:35 PM PDT (8/8)
Length of Visible Light 14h 38m
Length of Day
13h 43m
Waxing Crescent, 3% of the Moon is Illuminated
Aug 8
Waxing Crescent
Aug 14
First Quarter
Aug 20
Full
Aug 28
Last Quarter
Sep 5
New

Hourly Weather History & Observations

Time (PDT) Temp. Dew Point Humidity Pressure Visibility Wind Dir Wind Speed Gust Speed Precip Events Conditions
12:56 AM 78.1 °F 35.1 °F 21% 29.81 in 10.0 mi SSW 13.8 mph - N/A   Clear
1:56 AM 77.0 °F 35.1 °F 22% 29.80 in 10.0 mi SSW 9.2 mph - N/A   Clear
2:56 AM 75.9 °F 36.0 °F 23% 29.80 in 10.0 mi SSW 9.2 mph - N/A   Clear
3:56 AM 72.0 °F 33.1 °F 24% 29.81 in 10.0 mi SSW 9.2 mph - N/A   Clear
4:56 AM 69.1 °F 35.1 °F 29% 29.82 in 10.0 mi SSW 6.9 mph - N/A   Clear
5:56 AM 72.0 °F 37.0 °F 28% 29.84 in 10.0 mi South 10.4 mph - N/A   Clear
6:56 AM 66.9 °F 32.0 °F 27% 29.86 in 10.0 mi NW 4.6 mph - N/A   Clear
7:56 AM 75.9 °F 34.0 °F 22% 29.88 in 10.0 mi West 5.8 mph - N/A   Clear
8:56 AM 81.0 °F 34.0 °F 18% 29.88 in 10.0 mi Calm Calm - N/A   Clear
9:56 AM 84.9 °F 33.1 °F 16% 29.88 in 10.0 mi SSE 3.5 mph - N/A   Clear
10:56 AM 90.0 °F 36.0 °F 15% 29.87 in 10.0 mi NE 3.5 mph - N/A   Clear
11:56 AM 93.0 °F 30.0 °F 11% 29.86 in 10.0 mi Variable 4.6 mph - N/A   Clear
12:56 PM 96.1 °F 24.1 °F 8% 29.83 in 10.0 mi Variable 6.9 mph - N/A   Clear
1:56 PM 98.1 °F 23.0 °F 7% 29.81 in 10.0 mi South 17.3 mph 28.8 mph N/A   Clear
2:56 PM 99.0 °F 21.9 °F 6% 29.80 in 10.0 mi South 16.1 mph 26.5 mph N/A   Clear
3:56 PM 98.1 °F 19.9 °F 6% 29.79 in 10.0 mi SSW 12.7 mph 26.5 mph N/A   Clear
4:56 PM 98.1 °F 21.9 °F 7% 29.78 in 10.0 mi SSW 17.3 mph 28.8 mph N/A   Clear
5:56 PM 95.0 °F 28.0 °F 9% 29.77 in 10.0 mi SSW 18.4 mph 24.2 mph N/A   Clear
6:56 PM 93.0 °F 32.0 °F 12% 29.78 in 10.0 mi SW 18.4 mph 21.9 mph N/A   Clear
7:56 PM 87.1 °F 30.9 °F 13% 29.78 in 10.0 mi SW 9.2 mph - N/A   Clear
8:56 PM 82.9 °F 33.1 °F 17% 29.79 in 10.0 mi SW 8.1 mph - N/A   Clear
9:56 PM 81.0 °F 37.9 °F 21% 29.81 in 10.0 mi South 10.4 mph - N/A   Clear
10:56 PM 79.0 °F 39.0 °F 24% 29.80 in 10.0 mi South 15.0 mph - N/A   Clear
11:56 PM 77.0 °F 39.9 °F 26% 29.79 in 10.0 mi South 18.4 mph 24.2 mph N/A   Clear